[[{"header":{"parameterUnit":"m.s-1","parameterCategory":1,"la1":30.2992,"la2":30.254,"lo1":-89.0895,"lo2":-89.0443,"dy":0.0025,"dx":0.0025,"nx":19,"ny":19,"refTime":"2026-04-28T03:00:00:Z","depth":0,"parameterNumber":2,"parameterNumberName":"U-component_of_WINDS"},"data":[0,0,0,3.1656,3.1655,3.1586,3.1585,3.1531,3.153,0,0,0,0,0,0,0,0,0,0,0,3.1697,3.1698,3.1656,3.1655,3.1586,3.1585,3.1531,3.153,0,0,0,0,0,0,0,0,0,0,0,3.1697,3.1698,3.1698,3.1655,3.1586,3.1585,3.1531,3.1571,0,0,0,0,0,0,0,0,0,0,3.1632,3.1691,3.1697,3.1698,3.1654,3.1586,3.1585,3.1572,3.1568,3.1576,0,3.159,0,3.1559,3.1529,3.1529,0,0,0,3.1639,3.1694,3.1657,3.1698,3.1654,3.1586,3.1612,3.157,3.1565,3.1572,3.1588,3.1585,3.1558,3.1529,3.1529,3.1626,3.1627,0,0,3.1643,3.1696,3.166,3.1655,3.1668,3.1615,3.1611,3.1566,3.1588,3.1588,3.1584,3.1558,3.1529,3.1528,3.1625,3.1626,0,0,0,3.1665,3.17,3.1662,3.1658,3.1643,3.1613,3.1608,3.159,3.1574,3.1583,3.1557,3.1528,3.1528,3.1624,3.1625,3.1733,0,0,0,3.1666,3.1712,3.1665,3.1697,3.1645,3.1616,3.1634,3.1577,3.157,3.1557,3.1528,3.1528,3.1622,3.1625,3.1728,3.1775,0,0,0,3.1695,3.1715,3.1712,3.17,3.1672,3.1615,3.1596,3.1574,3.1555,3.1529,3.1528,3.1621,3.1624,3.1722,3.1767,3.1814,0,0,0,3.1741,3.1811,3.1715,3.1783,3.1673,3.1684,3.1595,3.1601,3.1592,3.1528,3.1622,3.1625,3.1721,3.1761,3.1809,3.1862,3.189,0,0,3.1859,3.1828,3.1863,3.1775,3.1816,3.169,3.1746,3.1688,3.1638,3.1633,3.1634,3.1729,3.1766,3.1813,3.2031,3.2054,0,0,0,3.1919,3.1945,3.1944,3.1937,3.1894,3.186,3.1787,3.1765,3.1758,3.1646,3.1759,3.1779,3.1805,3.1827,3.1846,3.1863,3.1639,3.1639,3.1638,3.2162,3.2092,3.2146,3.2068,3.2063,3.1986,3.1974,3.1931,3.1864,3.1892,3.1889,3.203,3.2059,3.2073,3.2092,3.1914,3.1914,3.1914,3.1915,3.2327,3.2352,3.2259,3.2278,3.2204,3.2219,3.2148,3.2099,3.2101,3.2027,3.2046,3.1969,3.21,3.2112,3.1922,3.1921,3.192,3.1919,3.1919,3.2476,3.2476,3.2447,3.2428,3.2421,3.234,3.2345,3.2278,3.2215,3.2234,3.2222,3.222,3.2207,3.2234,3.2234,3.2235,3.2235,3.2235,3.2236,3.2641,3.2606,3.2618,3.2577,3.2562,3.2534,3.2457,3.244,3.2405,3.2355,3.2355,3.2283,3.2127,3.2087,3.2243,3.2242,3.2241,3.224,3.2239,3.2829,3.2776,3.2796,3.2781,3.2726,3.2722,3.2636,3.2608,3.2584,3.2589,3.2513,3.2409,3.2372,3.2356,3.2322,3.253,3.253,3.253,3.253,3.2953,3.2928,3.2932,3.2912,3.2885,3.2809,3.2832,3.2772,3.2702,3.2683,3.2643,3.2594,3.2581,3.2551,3.2531,3.2499,3.2746,3.2747,3.2747,3.3064,3.3032,3.3065,3.2995,3.2947,3.2906,3.2924,3.2904,3.2814,3.2754,3.2665,3.2656,3.2576,3.2554,3.2491,3.2462,3.2401,0,0]},{"header":{"parameterUnit":"m.s-1","parameterCategory":1,"la1":30.2992,"la2":30.254,"lo1":-89.0895,"lo2":-89.0443,"dy":0.0025,"dx":0.0025,"nx":19,"ny":19,"refTime":"2026-04-28T03:00:00:Z","depth":0,"parameterNumber":3,"parameterNumberName":"V-component_of_WINDS"},"data":[0,0,0,5.5479,5.5481,5.5569,5.5569,5.5694,5.5696,0,0,0,0,0,0,0,0,0,0,0,5.5463,5.5464,5.5479,5.5481,5.5569,5.5569,5.5694,5.5696,0,0,0,0,0,0,0,0,0,0,0,5.5462,5.5463,5.5465,5.5481,5.5569,5.5569,5.5694,5.5622,0,0,0,0,0,0,0,0,0,0,5.5534,5.553,5.5463,5.5465,5.5482,5.5569,5.5569,5.5619,5.5627,5.5661,0,5.5695,0,5.5698,5.5705,5.5706,0,0,0,5.5473,5.5524,5.5538,5.5465,5.5483,5.5569,5.5527,5.5623,5.5632,5.5671,5.5697,5.5701,5.57,5.5706,5.5707,5.5929,5.593,0,0,5.5468,5.5484,5.5532,5.5545,5.5535,5.5524,5.553,5.5629,5.5657,5.5697,5.5704,5.5702,5.5707,5.5708,5.5928,5.5929,0,0,0,5.546,5.5481,5.5492,5.554,5.5555,5.5527,5.5534,5.5652,5.5655,5.5705,5.5703,5.5708,5.5709,5.5926,5.5928,5.6011,0,0,0,5.5456,5.5475,5.5491,5.5501,5.5554,5.5605,5.5555,5.5648,5.5659,5.5703,5.5708,5.5711,5.5925,5.5927,5.6006,5.6047,0,0,0,5.5453,5.5475,5.5491,5.5502,5.554,5.5603,5.5611,5.565,5.5658,5.5706,5.5711,5.5924,5.5927,5.6001,5.6039,5.6108,0,0,0,5.5454,5.5565,5.5493,5.5616,5.554,5.5655,5.5611,5.5696,5.5747,5.5709,5.5925,5.5928,5.5999,5.6034,5.6103,5.6167,5.6196,0,0,5.5603,5.5584,5.5655,5.5592,5.5724,5.564,5.5784,5.5816,5.5806,5.5888,5.5893,5.6007,5.6038,5.6107,5.6357,5.638,0,0,0,5.5706,5.5757,5.5789,5.5838,5.5866,5.5891,5.59,5.5911,5.5979,5.5852,5.6052,5.607,5.6109,5.6139,5.6159,5.619,5.5943,5.5943,5.5943,5.5938,5.5919,5.6033,5.6024,5.6072,5.6079,5.6115,5.613,5.6099,5.6146,5.6169,5.6324,5.636,5.6374,5.6407,5.6204,5.6204,5.6205,5.6205,5.6151,5.6218,5.6171,5.6265,5.6243,5.6321,5.633,5.6305,5.6372,5.6306,5.6339,5.6266,5.64,5.6428,5.6211,5.621,5.6209,5.6209,5.6208,5.6298,5.6327,5.6338,5.6405,5.6458,5.6445,5.6511,5.649,5.647,5.6503,5.6523,5.6522,5.6515,5.6515,5.6515,5.6516,5.6516,5.6517,5.6517,5.6445,5.6456,5.6515,5.6551,5.6577,5.661,5.6615,5.664,5.6662,5.6641,5.6641,5.6602,5.6418,5.6371,5.6525,5.6524,5.6523,5.6522,5.6521,5.6664,5.661,5.6702,5.6729,5.6767,5.6818,5.679,5.6842,5.686,5.6892,5.6846,5.6715,5.6693,5.6678,5.6638,5.6852,5.6852,5.6852,5.6852,5.6786,5.6774,5.686,5.6903,5.6943,5.6926,5.7025,5.703,5.7025,5.7034,5.7,5.6947,5.6932,5.6919,5.6898,5.6861,5.7127,5.7127,5.7127,5.6918,5.6908,5.6998,5.6993,5.7021,5.7044,5.7136,5.7185,5.717,5.7138,5.704,5.7028,5.6941,5.6915,5.6879,5.6847,5.6778,0,0]}]]